Flag for U.S.A. Weather past 2 weeks in Panama City, Florida, U.S.A.

Now
80 °F

Clear.


Feels Like: 87 °F
Forecast: 78 / 85 °F
Wind: 5 mph from East

Location: Tyndall Air Force Base

Current Time: Jul 31, 2015 at 11:25:29 PM

Latest Report: Jul 31, 2015 at 10:58 PM


Visibility: 10 mi

Pressure: 29.92 "Hg

Humidity: 93%

Dew point: 78 °F

Location of Panama CityLocation

Historic Weather in Panama City — Graph

°F

Panama City temperature yesterday

Maximum temperature yesterday: 90 °F (at 11:58 AM)
Minimum temperature yesterday: 78 °F (at 5:58 AM)
Average temperature yesterday: 81 °F

Past Weeks' High & Low Weather Summary

 TemperatureHumidityPressure
High96 °F (Jul 27, 3:58 PM)100% (Jul 19, 5:03 AM)30.04 "Hg (Jul 19, 5:03 AM)
Low73 °F (Jul 27, 5:58 AM)38% (Jul 27, 3:58 PM)29.86 "Hg (Jul 31, 5:58 PM)
Average84 °F80%29.96 "Hg
* Reported Jul 16 9:58 PM — Jul 31 9:58 PM, Panama City, Weather by CustomWeather, © 2015

Note: Actual official high and low records may vary slightly from our data, if they occured in-between our weather recording intervals... More about our weather records

Advertising

Panama City weather history for previous 24 hours

 ConditionsComfort  
Time TempWeatherWind HumidityBarometerVisibility
9:58 PM
Fri, Jul 31
80 °FClear.3 mph93%29.92 "Hg10 mi
8:58 PM80 °FPassing clouds.No wind92%29.91 "Hg10 mi
7:58 PM81 °FClear.3 mph91%29.90 "Hg10 mi
6:58 PM84 °FSunny.3 mph81%29.88 "Hg10 mi
5:58 PM85 °FSunny.5 mph80%29.86 "Hg10 mi
4:58 PM86 °FPassing clouds.8 mph77%29.87 "Hg10 mi
3:58 PM85 °FPassing clouds.9 mph80%29.88 "Hg10 mi
2:58 PM85 °FSunny.3 mph78%29.90 "Hg10 mi
1:58 PM85 °FSunny.5 mph79%29.92 "Hg10 mi
12:58 PM86 °FThunderstorms. Partly sunny.9 mph78%29.93 "Hg10 mi
11:58 AM88 °FBroken clouds.10 mph74%29.94 "Hg10 mi
10:58 AM87 °FScattered clouds.12 mph75%29.95 "Hg10 mi
9:58 AM87 °FSunny.9 mph75%29.94 "Hg10 mi
8:58 AM85 °FPassing clouds.No wind81%29.94 "Hg10 mi
7:58 AM82 °FSunny.3 mph88%29.94 "Hg10 mi
6:58 AM79 °FSunny.No wind97%29.93 "Hg10 mi
5:58 AM77 °FClear.No wind97%29.92 "Hg9 mi
4:58 AM78 °FClear.2 mph97%29.90 "Hg10 mi
3:58 AM78 °FClear.5 mph97%29.88 "Hg10 mi
2:58 AM78 °FClear.2 mph98%29.89 "Hg9 mi
1:58 AM78 °FClear.No wind97%29.91 "Hg7 mi
1:03 AM79 °FClear.No wind94%29.93 "Hg9 mi
12:58 AM78 °FClear.No wind96%29.94 "Hg10 mi
11:58 PM
Thu, Jul 30
79 °FClear.3 mph95%29.94 "Hg10 mi
Weather by CustomWeather, © 2015

See weather overviewHow to use our weather pages